TimeAKDT,TemperatureF,Dew PointF,Humidity,Sea Level PressureIn,VisibilityMPH,Wind Direction,Wind SpeedMPH,Gust SpeedMPH,PrecipitationIn,Events,Conditions,WindDirDegrees,DateUTC
12:53 AM,18.0,-0.0,45,30.11,10.0,NNE,6.9,-,N/A,,Clear,20,2013-04-12 08:53:00
1:53 AM,17.1,-0.0,47,30.11,10.0,North,5.8,-,N/A,,Clear,350,2013-04-12 09:53:00
2:53 AM,16.0,-0.9,47,30.11,10.0,North,6.9,-,N/A,,Clear,350,2013-04-12 10:53:00
3:53 AM,14.0,-2.0,49,30.12,10.0,NNE,3.5,-,N/A,,Clear,30,2013-04-12 11:53:00
4:53 AM,12.9,-2.0,51,30.10,10.0,NNW,3.5,-,N/A,,Clear,340,2013-04-12 12:53:00
5:53 AM,3.9,-5.1,66,30.10,10.0,East,4.6,-,N/A,,Clear,80,2013-04-12 13:53:00
6:53 AM,6.1,-0.9,73,30.09,10.0,East,3.5,-,N/A,,Clear,90,2013-04-12 14:53:00
7:53 AM,7.0,-0.9,70,30.09,10.0,Calm,Calm,-,N/A,,Clear,0,2013-04-12 15:53:00
8:53 AM,12.0,-0.9,56,30.09,10.0,Calm,Calm,-,N/A,,Clear,0,2013-04-12 16:53:00
9:53 AM,16.0,-2.9,43,30.09,10.0,NNW,4.6,-,N/A,,Clear,340,2013-04-12 17:53:00
10:53 AM,17.1,-2.9,41,30.09,10.0,North,5.8,-,N/A,,Clear,350,2013-04-12 18:53:00
11:53 AM,21.0,-0.9,38,30.09,10.0,North,5.8,-,N/A,,Clear,10,2013-04-12 19:53:00
12:53 PM,23.0,-2.0,34,30.08,10.0,NNE,3.5,-,N/A,,Clear,30,2013-04-12 20:53:00
1:53 PM,27.0,-2.0,29,30.06,10.0,NNE,8.1,-,N/A,,Clear,30,2013-04-12 21:53:00
2:53 PM,28.9,-0.9,28,30.05,10.0,North,5.8,-,N/A,,Clear,10,2013-04-12 22:53:00
3:53 PM,30.0,1.0,29,30.05,10.0,Variable,4.6,-,N/A,,Clear,0,2013-04-12 23:53:00
4:53 PM,30.0,-0.0,28,30.04,10.0,Calm,Calm,-,N/A,,Clear,0,2013-04-13 00:53:00
5:53 PM,30.9,-0.0,27,30.04,10.0,WNW,4.6,-,N/A,,Clear,300,2013-04-13 01:53:00
6:53 PM,30.0,-0.0,28,30.04,10.0,Calm,Calm,-,N/A,,Clear,0,2013-04-13 02:53:00
7:53 PM,30.9,1.9,29,30.05,10.0,North,9.2,-,N/A,,Clear,350,2013-04-13 03:53:00
8:53 PM,28.9,3.0,33,30.06,10.0,NNW,9.2,-,N/A,,Clear,330,2013-04-13 04:53:00
9:53 PM,27.0,1.9,34,30.08,10.0,North,8.1,-,N/A,,Clear,350,2013-04-13 05:53:00
10:53 PM,26.1,3.0,37,30.10,10.0,NNW,8.1,-,N/A,,Clear,330,2013-04-13 06:53:00
11:53 PM,23.0,1.9,40,30.12,10.0,NW,4.6,-,N/A,,Clear,310,2013-04-13 07:53:00